FW7336 Weather Reports


time (UTC)temp
C
wind
direction
speed
KPH
gust
KPH
rain 1hr
cm
rain 24hr
cm
rain mn
cm
humidity
%
barometer
mb
20260508071552 11 130 1.6 3.2 0.00 0.00 0.00 86 1018.0
20260508070056 11 0 0.0 1.6 0.00 0.00 0.00 87 1017.8
20260508064553 10 254 0.0 3.2 0.00 0.00 0.00 88 1017.7
20260508063056 10 0 0.0 4.8 0.00 0.00 0.00 88 1017.6
20260508061605 10 130 1.6 6.4 0.00 0.00 0.00 88 1017.3
20260508060056 10 139 4.8 6.4 0.00 0.00 0.00 88 1017.4
20260508054623 9 0 0.0 1.6 0.00 0.00 0.00 88 1017.3
20260508053053 9 261 0.0 1.6 0.00 0.00 0.00 88 1017.1
20260508051554 9 131 3.2 4.8 0.00 0.00 0.00 88 1017.1
20260508050055 9 0 0.0 1.6 0.00 0.00 0.00 88 1017.1
20260508044601 9 141 0.0 3.2 0.00 0.00 0.00 88 1017.0
20260508043059 9 140 0.0 3.2 0.00 0.00 0.00 88 1017.0
20260508041601 9 138 0.0 3.2 0.00 0.00 0.00 88 1016.9
20260508040100 10 137 3.2 4.8 0.00 0.00 0.00 87 1017.0
20260508034602 10 148 1.6 4.8 0.00 0.00 0.00 87 1016.9
20260508033057 10 158 4.8 6.4 0.00 0.00 0.00 87 1017.0
20260508031601 9 228 0.0 6.4 0.00 0.00 0.00 87 1017.0
20260508030112 9 168 3.2 4.8 0.00 0.00 0.00 86 1017.0
20260508024605 10 145 4.8 4.8 0.00 0.00 0.00 86 1017.0
20260508023055 10 259 1.6 1.6 0.00 0.00 0.00 85 1017.0
20260508021615 10 0 0.0 4.8 0.00 0.00 0.00 85 1017.0
20260508020057 10 247 1.6 3.2 0.00 0.00 0.00 85 1016.9
20260508014557 10 0 0.0 3.2 0.00 0.00 0.00 84 1016.7
20260508013106 10 0 0.0 0.0 0.00 0.00 0.00 84 1016.8
20260508011600 10 0 0.0 1.6 0.00 0.00 0.00 84 1016.8
20260508010058 10 233 3.2 11.3 0.00 0.00 0.00 84 1016.7
20260508004600 10 154 6.4 8.0 0.00 0.00 0.00 83 1016.7
20260508003107 10 249 1.6 9.7 0.00 0.00 0.00 82 1017.0
20260508001558 10 146 3.2 11.3 0.00 0.00 0.00 82 1017.0
20260508000055 10 228 3.2 6.4 0.00 0.00 0.00 81 1017.1
20260507234559 10 190 11.3 17.7 0.00 0.00 0.00 80 1017.2
20260507233054 10 157 9.7 14.5 0.00 0.00 0.00 79 1017.2
20260507231600 11 152 12.9 20.9 0.00 0.00 0.00 79 1017.2
20260507230101 11 138 14.5 20.9 0.00 0.00 0.00 78 1017.0
20260507224604 11 146 14.5 20.9 0.00 0.00 0.00 78 1017.2
20260507223053 11 144 12.9 19.3 0.00 0.00 0.00 78 1017.1
20260507221554 11 138 12.9 19.3 0.00 0.00 0.00 77 1017.1
20260507220053 11 143 12.9 19.3 0.00 0.00 0.00 76 1017.1
20260507214553 11 133 11.3 19.3 0.00 0.00 0.00 75 1017.2
20260507213056 11 131 9.7 14.5 0.00 0.00 0.00 75 1017.2
20260507211553 11 118 9.7 12.9 0.00 0.00 0.00 74 1017.0
20260507210119 11 106 9.7 11.3 0.00 0.00 0.00 74 1016.8
20260507204600 11 112 9.7 11.3 0.00 0.00 0.00 73 1016.6
20260507203102 12 115 6.4 11.3 0.00 0.00 0.00 72 1016.6
20260507201600 12 105 6.4 8.0 0.00 0.00 0.00 71 1016.5
20260507200105 12 117 6.4 8.0 0.00 0.00 0.00 71 1016.4
20260507194553 12 115 6.4 9.7 0.00 0.00 0.00 70 1016.1
20260507193123 12 108 6.4 11.3 0.00 0.00 0.00 69 1016.1
20260507191559 12 113 8.0 14.5 0.00 0.00 0.00 68 1016.1
20260507190054 12 126 11.3 14.5 0.00 0.00 0.00 67 1016.0
20260507184554 13 110 9.7 17.7 0.00 0.00 0.00 65 1016.0
20260507183102 13 101 11.3 19.3 0.00 0.00 0.00 64 1015.9
20260507181554 13 119 11.3 22.5 0.00 0.00 0.00 63 1015.8
20260507180058 13 110 16.1 22.5 0.00 0.00 0.00 61 1015.7
20260507174554 13 122 14.5 19.3 0.00 0.00 0.00 58 1015.7
20260507173130 13 122 9.7 14.5 0.00 0.00 0.00 61 1015.7
20260507171556 13 139 16.1 24.1 0.00 0.00 0.00 59 1015.6
20260507170055 14 122 14.5 20.9 0.00 0.00 0.00 57 1015.8
20260507164604 14 145 14.5 22.5 0.00 0.00 0.00 57 1015.8
20260507163054 13 112 12.9 17.7 0.00 0.00 0.00 56 1015.7
20260507161607 13 90 14.5 19.3 0.00 0.00 0.00 58 1015.7
20260507160115 13 115 9.7 16.1 0.00 0.00 0.00 60 1015.8
20260507154553 13 82 9.7 14.5 0.00 0.00 0.00 61 1016.0
20260507153052 13 152 8.0 12.9 0.00 0.00 0.00 59 1016.1
20260507151559 13 156 12.9 19.3 0.00 0.00 0.00 57 1016.3
20260507150100 13 151 8.0 19.3 0.00 0.00 0.00 60 1016.3
20260507144605 13 128 9.7 16.1 0.00 0.00 0.00 59 1016.3
20260507143100 13 150 11.3 17.7 0.00 0.00 0.00 58 1016.4
20260507141618 13 94 6.4 14.5 0.00 0.00 0.00 61 1016.5
20260507134601 13 129 8.0 16.1 0.00 0.00 0.00 61 1016.8
20260507133054 13 120 9.7 16.1 0.00 0.00 0.00 61 1016.7
20260507131556 13 124 9.7 12.9 0.00 0.00 0.00 62 1016.8
20260507130058 13 129 9.7 14.5 0.00 0.00 0.00 62 1016.9
20260507124552 13 105 8.0 16.1 0.00 0.00 0.00 63 1016.9
20260507123054 12 129 8.0 16.1 0.00 0.00 0.00 63 1016.9
20260507121558 12 79 4.8 12.9 0.00 0.00 0.00 65 1017.0
20260507120144 12 153 8.0 17.7 0.00 0.00 0.00 64 1017.1
20260507114602 13 145 4.8 17.7 0.00 0.00 0.00 66 1017.0
20260507113057 12 188 6.4 19.3 0.00 0.00 0.00 68 1017.1
20260507111600 12 126 8.0 20.9 0.00 0.00 0.00 70 1017.2
20260507110111 12 167 9.7 14.5 0.00 0.00 0.00 69 1017.2
20260507104554 12 181 6.4 20.9 0.00 0.00 0.00 71 1017.4
20260507103052 11 229 4.8 17.7 0.00 0.00 0.00 71 1017.6
20260507101625 11 155 4.8 12.9 0.00 0.00 0.00 74 1017.6
20260507100056 11 205 8.0 16.1 0.00 0.00 0.00 74 1017.6
20260507094552 11 136 4.8 11.3 0.00 0.00 0.00 76 1017.6
20260507093057 11 226 8.0 19.3 0.00 0.00 0.00 76 1017.7
20260507091549 10 160 9.7 20.9 0.00 0.00 0.00 78 1017.5
20260507090057 10 166 9.7 16.1 0.00 0.00 0.00 79 1017.5
20260507084557 10 153 12.9 19.3 0.00 0.00 0.00 79 1017.6
20260507083055 10 143 6.4 9.7 0.00 0.00 0.00 80 1017.6
20260507081553 10 296 1.6 4.8 0.00 0.00 0.00 82 1017.6
20260507080053 10 41 0.0 1.6 0.00 0.00 0.00 88 1017.6
20260507074601 8 0 0.0 3.2 0.00 0.00 0.00 90 1017.6
20260507073054 8 0 0.0 1.6 0.00 0.00 0.00 92 1017.5